EW0731 Weather Reports


Display with metric or nautical units.
time (UTC)temp
F
wind
direction
speed
MPH
gust
MPH
rain 1hr
in
rain 24hr
in
rain mn
in
humidity
%
barometer
mb
20190426093040 62 324 0.0 0.0 0.00 0.00 0.00 91 1015.0
20190426091552 62 324 0.0 0.0 0.00 0.00 0.00 90 1014.9
20190426090026 62 324 0.0 0.0 0.00 0.00 0.00 89 1014.9
20190426084529 63 324 0.0 0.0 0.00 0.01 0.00 88 1014.8
20190426083044 63 324 0.0 0.0 0.00 0.01 0.00 88 1014.7
20190426081539 63 324 0.0 0.0 0.00 0.01 0.00 89 1014.6
20190426080052 64 324 0.0 0.0 0.00 0.01 0.00 88 1014.5
20190426074545 64 324 0.0 0.0 0.00 0.07 0.00 87 1014.5
20190426073125 64 324 0.0 0.0 0.00 0.07 0.00 85 1014.5
20190426071523 65 324 0.0 0.0 0.00 0.07 0.00 84 1014.6
20190426070033 65 324 0.0 0.0 0.00 0.07 0.00 84 1014.7
20190426064538 65 324 0.0 0.0 0.00 0.07 0.00 83 1014.6
20190426063018 66 324 0.0 0.0 0.00 0.07 0.00 82 1014.7
20190426061505 66 324 0.0 1.0 0.00 0.07 0.00 82 1014.7
20190426060003 66 324 0.0 0.0 0.00 0.07 0.00 82 1014.8
20190426054512 67 324 0.0 0.0 0.00 0.07 0.00 81 1014.8
20190426053153 67 324 0.0 0.0 0.00 0.07 0.00 80 1014.7
20190426051704 67 324 0.0 0.0 0.00 0.07 0.00 79 1014.8
20190426050145 68 324 0.0 0.0 0.00 0.07 0.00 78 1014.8
20190426044637 68 324 0.0 0.0 0.00 0.07 0.07 77 1014.7
20190426043145 69 324 0.0 0.0 0.00 0.07 0.07 75 1014.6
20190426041636 69 324 0.0 0.0 0.00 0.07 0.07 74 1014.6
20190426040136 70 324 0.0 0.0 0.00 0.07 0.07 73 1014.4
20190426034618 71 324 0.0 0.0 0.00 0.08 0.07 71 1014.3
20190426033202 72 324 0.0 1.0 0.00 0.08 0.07 69 1014.2
20190426031622 72 324 0.0 0.0 0.00 0.08 0.07 67 1014.0
20190426030147 73 324 0.0 0.0 0.00 0.08 0.07 66 1013.8
20190426024656 74 324 0.0 2.0 0.00 0.12 0.07 65 1013.6
20190426023151 74 325 0.0 1.0 0.00 0.12 0.07 63 1013.3
20190426021626 75 325 0.0 2.0 0.00 0.12 0.07 61 1013.0
20190426020129 76 325 0.0 1.0 0.00 0.12 0.07 59 1012.7
20190426014643 77 325 0.0 4.0 0.00 0.12 0.07 57 1012.3
20190426013122 78 338 0.0 4.0 0.00 0.12 0.07 55 1012.0
20190426011541 78 329 0.0 5.0 0.00 0.12 0.07 54 1011.7
20190426010048 79 346 0.0 11.0 0.00 0.12 0.07 53 1011.5
20190426004551 80 327 4.0 11.0 0.00 0.12 0.07 50 1011.2
20190426003058 80 330 2.0 11.0 0.00 0.12 0.07 49 1010.9
20190426001530 81 5 6.0 17.0 0.00 0.12 0.07 48 1010.8
20190426000118 81 301 6.0 12.0 0.00 0.12 0.07 48 1010.6
20190425234533 82 328 4.0 12.0 0.00 0.12 0.07 47 1010.4
20190425233048 82 336 2.0 11.0 0.00 0.12 0.07 47 1010.2
20190425231552 83 323 2.0 12.0 0.00 0.12 0.07 46 1010.2
20190425230044 83 273 5.0 13.0 0.00 0.12 0.07 46 1010.0
20190425224526 83 229 4.0 11.0 0.00 0.12 0.07 44 1010.0
20190425223032 84 246 3.0 9.0 0.00 0.12 0.07 45 1009.9
20190425221516 83 270 2.0 7.0 0.00 0.12 0.07 45 1009.8
20190425220033 83 344 1.0 10.0 0.00 0.12 0.07 46 1009.8
20190425214549 84 260 2.0 9.0 0.00 0.12 0.07 45 1009.7
20190425213027 84 351 1.0 9.0 0.00 0.12 0.07 45 1009.6
20190425211549 84 5 1.0 10.0 0.00 0.12 0.07 45 1009.7
20190425210011 84 237 1.0 8.0 0.00 0.12 0.07 47 1009.6
20190425204526 84 285 4.0 12.0 0.00 0.12 0.07 45 1009.8
20190425203015 84 245 2.0 10.0 0.00 0.12 0.07 47 1009.8
20190425201509 84 273 3.0 9.0 0.00 0.12 0.07 49 1010.0
20190425200011 84 265 1.0 9.0 0.00 0.12 0.07 47 1010.0
20190425194506 83 315 3.0 8.0 0.00 0.12 0.07 46 1010.0
20190425193008 83 319 4.0 12.0 0.00 0.12 0.07 49 1010.0
20190425191501 83 5 6.0 12.0 0.00 0.12 0.07 50 1010.1
20190425190207 82 308 0.0 9.0 0.00 0.12 0.07 51 1010.1
20190425184652 82 254 3.0 12.0 0.00 0.12 0.07 55 1010.1
20190425183215 81 244 2.0 11.0 0.00 0.12 0.07 55 1010.3
20190425181612 81 305 2.0 9.0 0.00 0.12 0.07 57 1010.4
20190425180141 80 249 1.0 8.0 0.00 0.12 0.07 59 1010.3
20190425174605 80 272 3.0 13.0 0.00 0.12 0.07 57 1010.4
20190425173205 80 258 2.0 10.0 0.00 0.12 0.07 58 1010.5
20190425171721 79 320 0.0 8.0 0.00 0.12 0.07 62 1010.6
20190425170141 78 279 4.0 14.0 0.00 0.12 0.07 60 1010.5
20190425164645 78 281 2.0 8.0 0.00 0.12 0.07 62 1010.7
20190425163141 77 300 1.0 14.0 0.00 0.12 0.07 63 1010.7
20190425161648 76 296 1.0 10.0 0.00 0.12 0.07 66 1010.7
20190425160117 76 302 0.0 11.0 0.00 0.12 0.07 69 1010.5
20190425154600 75 285 1.0 5.0 0.00 0.12 0.07 70 1010.5
20190425153047 74 257 2.0 8.0 0.00 0.12 0.07 71 1010.5
20190425151533 73 292 0.0 7.0 0.00 0.12 0.07 74 1010.3
20190425150046 72 307 2.0 9.0 0.00 0.12 0.07 74 1010.3
20190425144555 71 305 2.0 7.0 0.00 0.16 0.07 78 1010.1
20190425143030 70 312 0.0 7.0 0.00 0.16 0.07 81 1010.0
20190425141559 69 303 1.0 9.0 0.00 0.16 0.07 84 1010.0
20190425140029 69 243 0.0 4.0 0.00 0.16 0.07 89 1010.0
20190425134519 67 252 1.0 5.0 0.00 0.16 0.07 91 1010.0
20190425133035 67 252 0.0 6.0 0.00 0.16 0.07 92 1009.9
20190425131525 66 288 1.0 4.0 0.00 0.16 0.07 94 1009.9
20190425130020 65 279 0.0 5.0 0.00 0.16 0.07 96 1009.5
20190425124528 64 315 0.0 2.0 0.00 0.16 0.07 97 1009.2
20190425123030 64 315 0.0 3.0 0.00 0.16 0.07 96 1009.1
20190425121506 64 320 0.0 2.0 0.00 0.16 0.07 96 1008.9
20190425120019 64 344 0.0 0.0 0.00 0.16 0.07 96 1008.7
20190425114502 64 339 0.0 2.0 0.00 0.16 0.07 96 1008.4
20190425113156 65 243 0.0 0.0 0.00 0.16 0.07 96 1008.3
20190425111618 65 243 0.0 0.0 0.00 0.16 0.07 96 1008.2
20190425110242 65 242 0.0 1.0 0.00 0.16 0.07 96 1008.1
20190425104710 65 16 0.0 4.0 0.00 0.16 0.07 96 1008.3
20190425103148 65 317 2.0 10.0 0.00 0.16 0.07 96 1008.2
20190425101631 66 281 3.0 8.0 0.00 0.16 0.07 97 1008.0
20190425100139 66 280 0.0 4.0 0.00 0.16 0.07 97 1008.1
20190425094649 66 298 0.0 5.0 0.00 0.16 0.07 97 1008.0